Location: Melizzano
(41.1500°N, 14.5000°E)
Time: 19:22:35
(UTC+00:00)

Cosmos 1656 Rocket - Pass Details

Date: 11 May 2021
Orbit: 794 x 848 km, 71.1° (Epoch: 21 June)

Event Time Altitude Azimuth Distance (km) Brightness Sun altitude
Exits shadow 22:35:26 49° 48° (NE) 1,037 4.2 -30.5°
Drops below altitude 10° 22:39:31 10° 28° (NNE) 2,410 6.7 -30.6°
Sets 22:41:59 0° 26° (NNE) 3,355 7.6 -30.6°
